Location: Bucquoy
(50.1391°N, 2.7097°E)
Time: 23:44:58
(UTC+00:00)

Cosmos 1943 Rocket - Pass Details

Date: 06 May 2021
Orbit: 814 x 842 km, 71.0° (Epoch: 21 June)

Event Time Altitude Azimuth Distance (km) Brightness Sun altitude
Exits shadow 01:50:52 11° 267° (W) 2,363 4.2 -17.8°
Maximum altitude 01:55:06 24° 319° (NW) 1,654 3.9 -17.5°
Drops below altitude 10° 01:59:38 10° 13° (NNE) 2,446 5.7 -17.1°
Sets 02:02:32 0° 27° (NNE) 3,377 7.1 -16.8°
